Weather History for Belize, Belize

Change the Weather History Date:

Tuesday, December 6, 2011

  Actual Average Record
Temperature  
Mean Temperature 76 °F -  
Max Temperature 79 °F - 87 °F (2013)
Min Temperature 73 °F 69 °F 64 °F (2000)
Cooling Degree Days 11    
Growing Degree Days 26 (Base 50)    
Moisture  
Dew Point 73 °F    
Average Humidity 90    
Maximum Humidity 100    
Minimum Humidity 75    
Precipitation  
Precipitation 0.16 in 0.22 in - ()
Sea Level Pressure  
Sea Level Pressure 29.95 in    
Wind  
Wind Speed 3 mph ()    
Max Wind Speed 14 mph    
Max Gust Speed -    
Visibility 7.3 miles    
Events Rain    
Averages and records for this station are not official NWS values.
T = Trace of Precipitation, MM = Missing Value Source: Averaged Metar Reports

Daily Weather History Graph

Daily Weather History Graph

Search for Another Location

Airport:

Trip Planner

Search our weather history database for the weather conditions in past years. The results will help you decide how hot, cold, wet, or windy it might be!

Date:

Astronomy

Dec. 06, 2011 Rise Set
Actual Time 6:10 AM CST 5:18 PM CST
Civil Twilight 5:46 AM CST 5:41 PM CST
Nautical Twilight 5:19 AM CST 6:08 PM CST
Astronomical Twilight 4:53 AM CST 6:35 PM CST
Moon 2:30 PM CST (12/6) 2:47 AM CST (12/6)
Length of Visible Light 11h 54m
Length of Day
11h 07m
Waxing Gibbous, 87% of the Moon is Illuminated
Dec 6
Waxing Gibbous
Dec 10
Full
Dec 17
Last Quarter
Dec 24
New
Jan 1
First Quarter

Hourly Weather History & Observations

Time (CST) Temp. Dew Point Humidity Pressure Visibility Wind Dir Wind Speed Gust Speed Precip Events Conditions
12:00 AM 73 °F 72 °F 94% 29.96 in 12 mi Calm Calm - -  
12:00 AM 73.4 °F 71.6 °F 94% 29.95 in 6.2 mi Calm Calm - N/A   Mostly Cloudy
3:00 AM 73 °F 72 °F 94% 29.93 in 9 mi Calm Calm - - Rain Light Rain Showers
3:00 AM 73.4 °F 71.6 °F 94% 29.92 in - Calm Calm - N/A Rain Light Rain Showers
6:00 AM 74 °F 73 °F 96% 29.94 in 12 mi WNW 3.5 mph - - Rain Light Rain Showers
6:00 AM 73.4 °F 73.4 °F 100% 29.92 in 6.2 mi WNW 3.5 mph - N/A   Mostly Cloudy
7:00 AM 73.4 °F 73.4 °F 100% 29.95 in 6.2 mi NNW 4.6 mph - N/A   Mostly Cloudy
8:00 AM 77.0 °F 75.2 °F 94% 29.97 in - North - - N/A   Mostly Cloudy
9:00 AM 76 °F 73 °F 88% 29.99 in 12 mi North 5.8 mph - -   Partly Cloudy
9:00 AM 75.2 °F 73.4 °F 94% 29.99 in 6.2 mi North 5.8 mph - N/A   Scattered Clouds
10:00 AM 78.8 °F 73.4 °F 83% 29.99 in 6.2 mi North 4.6 mph - N/A   Mostly Cloudy
11:00 AM 78.8 °F 73.4 °F 83% 29.98 in 6.2 mi ENE 6.9 mph - N/A   Mostly Cloudy
12:00 PM 78.8 °F 73.4 °F 83% 29.95 in 6.2 mi NE 13.8 mph - N/A   Mostly Cloudy
1:00 PM 77.0 °F 73.4 °F 89% 29.94 in 6.2 mi NE 13.8 mph - N/A Rain Light Rain
2:00 PM 77.0 °F 73.4 °F 89% 29.91 in 6.2 mi NW 9.2 mph - N/A Rain Light Rain
3:00 PM 79 °F 72 °F 75% 29.91 in 12 mi NW 6.9 mph - - Rain Light Rain Showers
3:00 PM 78.8 °F 71.6 °F 78% 29.90 in 6.2 mi NW 6.9 mph - N/A   Mostly Cloudy
4:00 PM 78.8 °F 73.4 °F 83% 29.90 in 6.2 mi WNW 4.6 mph - N/A   Mostly Cloudy
5:00 PM 78.8 °F 73.4 °F 83% 29.92 in 6.2 mi North 3.5 mph - N/A Rain Light Rain Showers
6:00 PM 75 °F 73 °F 92% 29.96 in 3 mi NNE 4.6 mph - - Rain Rain
6:00 PM 75.2 °F 73.4 °F 94% 29.95 in 3.1 mi NNE 4.6 mph - N/A Rain Light Rain
7:00 PM 75.2 °F 73.4 °F 94% 29.97 in 5.0 mi North 5.8 mph - N/A Rain Light Rain
9:00 PM 74 °F 73 °F 95% 30.01 in 11 mi WNW 2.3 mph - - Rain Light Rain
9:00 PM 73.4 °F 73.4 °F 100% 30.01 in - North - - N/A   Mostly Cloudy